Clearfield, PA

6:55 PM EDT on May 23, 2017 (GMT -0400)
Clearfield-Lawrence

Weather History for KFIG - December, 2012

Change the Weather History Date:

Friday, December 7, 2012

  Actual Average (KDUJ) Record (KDUJ)
Temperature  
Mean Temperature 33 °F -  
Max Temperature 36 °F 36 °F 55 °F (1966)
Min Temperature 30 °F 24 °F 7 °F (1977)
Degree Days  
Heating Degree Days 32    
Moisture  
Dew Point 33 °F    
Average Humidity 95    
Maximum Humidity 100    
Minimum Humidity 69    
Precipitation  
Precipitation 0.44 in - - ()
Sea Level Pressure  
Sea Level Pressure 30.01 in    
Wind  
Wind Speed 5 mph (NNE)    
Max Wind Speed 7 mph    
Max Gust Speed -    
Visibility 2 miles    
Events Fog , Rain    
Averages and records for this station are not official NWS values.
T = Trace of Precipitation, MM = Missing Value Source: NWS Daily Summary

Daily Weather History Graph

Daily Weather History Graph

Search for Another Location

Airport or City:

Trip Planner

Search our weather history database for the weather conditions in past years. The results will help you decide how hot, cold, wet, or windy it might be!

Date:

Astronomy

Dec. 07, 2012 Rise Set
Actual Time 7:25 AM EST 4:45 PM EST
Civil Twilight 6:54 AM EST 5:15 PM EST
Nautical Twilight 6:20 AM EST 5:50 PM EST
Astronomical Twilight 5:46 AM EST 6:23 PM EST
Moon 12:39 AM EST (12/7) 12:43 PM EST (12/7)
Length of Visible Light 10h 21m
Length of Day
9h 19m
Last Quarter, 39% of the Moon is Illuminated
Dec 7
Last Quarter
Dec 13
New
Dec 20
First Quarter
Dec 28
Full
Jan 4
Last Quarter

Hourly Weather History & Observations

Time (EST) Temp. Windchill Dew Point Humidity Pressure Visibility Wind Dir Wind Speed Gust Speed Precip Events Conditions
12:54 AM 30.0 °F 24.1 °F 21.0 °F 69% 30.13 in 10.0 mi NE 5.8 mph - N/A   Mostly Cloudy
1:54 AM 30.9 °F 27.5 °F 21.9 °F 69% 30.12 in 10.0 mi NE 3.5 mph - N/A   Mostly Cloudy
2:54 AM 32.0 °F 27.5 °F 23.0 °F 69% 30.11 in 10.0 mi NE 4.6 mph - N/A   Overcast
3:47 AM 32.0 °F 28.7 °F 24.8 °F 75% 30.05 in 10.0 mi North 3.5 mph - N/A   Overcast
3:54 AM 32.0 °F 28.7 °F 23.0 °F 69% 30.09 in 10.0 mi NNE 3.5 mph - N/A   Overcast
4:07 AM 32.0 °F 26.4 °F 23.0 °F 69% 30.04 in 10.0 mi NE 5.8 mph - 0.00 in   Overcast
4:39 AM 32.0 °F 26.4 °F 24.8 °F 75% 30.03 in 10.0 mi NE 5.8 mph - 0.00 in   Overcast
4:54 AM 32.0 °F 26.4 °F 25.0 °F 75% 30.09 in 10.0 mi NE 5.8 mph - 0.00 in   Overcast
5:54 AM 30.9 °F - 28.0 °F 89% 30.09 in 9.0 mi Calm Calm - 0.03 in   Overcast
6:54 AM 32.0 °F 26.4 °F 30.0 °F 92% 30.09 in 8.0 mi ENE 5.8 mph - 0.02 in   Overcast
7:36 AM 32.0 °F 27.5 °F 30.2 °F 93% 30.05 in 4.0 mi NE 4.6 mph - 0.01 in   Overcast
7:54 AM 32.0 °F 27.5 °F 30.9 °F 96% 30.09 in 4.0 mi NE 4.6 mph - 0.02 in   Overcast
8:05 AM 32.0 °F 27.5 °F 30.2 °F 93% 30.05 in 2.0 mi NE 4.6 mph - 0.01 in   Overcast
8:28 AM 32.0 °F 28.7 °F 30.2 °F 93% 30.05 in 1.2 mi NNE 3.5 mph - 0.02 in   Overcast
8:54 AM 32.0 °F 27.5 °F 30.9 °F 96% 30.09 in 2.0 mi NE 4.6 mph - 0.02 in   Overcast
9:10 AM 32.0 °F 26.4 °F 32.0 °F 100% 30.05 in 1.8 mi NNE 5.8 mph - 0.01 in   Overcast
9:17 AM 32.0 °F 28.7 °F 32.0 °F 100% 30.05 in 1.8 mi NNE 3.5 mph - 0.01 in   Overcast
9:33 AM 33.8 °F - 32.0 °F 93% 30.04 in 0.8 mi Calm Calm - 0.01 in   Overcast
9:41 AM 33.8 °F 30.8 °F 32.0 °F 93% 30.04 in 1.5 mi ENE 3.5 mph - 0.01 in Rain Light Rain
9:51 AM 33.8 °F 29.6 °F 32.0 °F 93% 30.04 in 2.5 mi NE 4.6 mph - 0.01 in Rain Light Rain
9:54 AM 33.1 °F 27.7 °F 32.0 °F 96% 30.09 in 2.0 mi ENE 5.8 mph - 0.01 in Rain Light Rain
10:08 AM 33.8 °F 29.6 °F 32.0 °F 93% 30.04 in 1.8 mi ENE 4.6 mph - 0.00 in Rain Light Rain
10:28 AM 33.8 °F 27.7 °F 33.8 °F 100% 30.01 in 0.5 mi ENE 6.9 mph - 0.01 in Fog , Rain Light Rain
10:45 AM 33.8 °F 29.6 °F 33.8 °F 100% 30.01 in 2.0 mi NE 4.6 mph - 0.01 in Rain Light Rain
10:50 AM 33.8 °F 28.6 °F 33.8 °F 100% 30.01 in 1.0 mi NNE 5.8 mph - 0.01 in Rain Light Rain
10:54 AM 34.0 °F 28.0 °F 33.1 °F 96% 30.06 in 0.8 mi North 6.9 mph - 0.01 in Rain Light Rain
11:15 AM 33.8 °F 28.6 °F 33.8 °F 100% 30.01 in 1.0 mi NNE 5.8 mph - 0.00 in   Overcast
11:38 AM 33.8 °F 29.6 °F 33.8 °F 100% 30.01 in 0.5 mi NNE 4.6 mph - 0.00 in Fog Fog
11:54 AM 34.0 °F 31.0 °F 33.1 °F 96% 30.05 in 1.2 mi NE 3.5 mph - 0.00 in Rain Light Rain
12:39 PM 33.8 °F 29.6 °F 33.8 °F 100% 29.99 in 0.5 mi NNE 4.6 mph - 0.02 in Fog , Rain Rain
12:54 PM 34.0 °F - 34.0 °F 100% 30.03 in 0.5 mi Calm Calm - 0.03 in Fog , Rain Rain
1:01 PM 33.8 °F - 33.8 °F 100% 29.98 in 0.2 mi Calm Calm - 0.01 in Fog , Rain Rain
1:11 PM 35.6 °F 31.7 °F 33.8 °F 93% 29.98 in 0.5 mi North 4.6 mph - 0.01 in Fog , Rain Light Rain
1:19 PM 35.6 °F 31.7 °F 33.8 °F 93% 29.97 in 0.5 mi North 4.6 mph - 0.02 in Fog , Rain Light Rain
1:49 PM 35.6 °F 31.7 °F 35.6 °F 100% 29.97 in 1.0 mi NNE 4.6 mph - 0.02 in   Overcast
1:54 PM 35.1 °F 32.2 °F 35.1 °F 100% 30.01 in 1.0 mi NNE 3.5 mph - 0.02 in   Mist
2:35 PM 35.6 °F - 35.6 °F 100% 29.97 in 0.5 mi Calm Calm - 0.00 in Fog , Rain Light Rain
2:54 PM 36.0 °F 33.3 °F 35.1 °F 97% 30.01 in 0.8 mi North 3.5 mph - 0.00 in Rain Light Rain
3:22 PM 35.6 °F 32.8 °F 35.6 °F 100% 29.97 in 1.0 mi North 3.5 mph - 0.01 in Rain Light Rain
3:40 PM 35.6 °F 31.7 °F 35.6 °F 100% 29.97 in 0.8 mi North 4.6 mph - 0.01 in Rain Light Rain
3:51 PM 35.6 °F 32.8 °F 35.6 °F 100% 29.97 in 1.0 mi North 3.5 mph - 0.02 in Rain Light Rain
3:54 PM 36.0 °F 33.3 °F 36.0 °F 100% 30.01 in 0.8 mi North 3.5 mph - 0.02 in Rain Light Rain
4:16 PM 35.6 °F 31.7 °F 35.6 °F 100% 29.97 in 0.5 mi NNE 4.6 mph - 0.00 in Fog , Rain Light Rain
4:28 PM 35.6 °F 32.8 °F 35.6 °F 100% 29.97 in 0.2 mi North 3.5 mph - 0.01 in Fog , Rain Light Rain
4:51 PM 35.6 °F 31.7 °F 35.6 °F 100% 29.97 in 0.5 mi NNE 4.6 mph - 0.01 in Fog , Rain Light Rain
4:54 PM 36.0 °F 32.1 °F 36.0 °F 100% 30.01 in 0.5 mi NNE 4.6 mph - 0.01 in Fog , Rain Light Rain
5:54 PM 36.0 °F 32.1 °F 36.0 °F 100% 30.02 in 1.0 mi North 4.6 mph - 0.01 in Rain Light Rain
6:01 PM 35.6 °F 30.7 °F 35.6 °F 100% 29.98 in 0.8 mi North 5.8 mph - 0.00 in Rain Light Rain
6:05 PM 35.6 °F 30.7 °F 35.6 °F 100% 29.98 in 1.0 mi NNE 5.8 mph - 0.00 in Rain Light Rain
6:16 PM 35.6 °F 31.7 °F 35.6 °F 100% 29.98 in 0.8 mi North 4.6 mph - 0.01 in Rain Light Rain
6:35 PM 35.6 °F 31.7 °F 35.6 °F 100% 29.97 in 1.0 mi NNE 4.6 mph - 0.02 in Rain Light Rain
6:42 PM 35.6 °F 31.7 °F 35.6 °F 100% 29.97 in 0.5 mi NNE 4.6 mph - 0.02 in Fog , Rain Light Rain
6:54 PM 36.0 °F 32.1 °F 36.0 °F 100% 30.02 in 0.5 mi NNE 4.6 mph - 0.02 in Fog , Rain Light Rain
7:15 PM 35.6 °F 30.7 °F 35.6 °F 100% 29.97 in 0.5 mi North 5.8 mph - 0.01 in Fog , Rain Light Rain
7:29 PM 35.6 °F 29.9 °F 35.6 °F 100% 29.97 in 1.2 mi NNE 6.9 mph - 0.01 in Rain Light Rain
7:54 PM 36.0 °F 32.1 °F 36.0 °F 100% 30.01 in 1.2 mi NNE 4.6 mph - 0.02 in Rain Light Rain
8:09 PM 35.6 °F 31.7 °F 35.6 °F 100% 29.97 in 0.5 mi NNE 4.6 mph - 0.01 in Fog , Rain Light Rain
8:32 PM 35.6 °F 30.7 °F 35.6 °F 100% 29.96 in 1.0 mi NNE 5.8 mph - 0.02 in Rain Rain
8:44 PM 35.6 °F 31.7 °F 35.6 °F 100% 29.96 in 0.5 mi NNE 4.6 mph - 0.03 in Fog , Rain Light Rain
8:54 PM 36.0 °F 32.1 °F 36.0 °F 100% 30.01 in 1.0 mi North 4.6 mph - 0.03 in Rain Light Rain
9:11 PM 35.6 °F 31.7 °F 35.6 °F 100% 29.96 in 0.8 mi NNE 4.6 mph - 0.01 in Rain Light Rain
9:19 PM 35.6 °F 30.7 °F 35.6 °F 100% 29.96 in 1.2 mi NNE 5.8 mph - 0.01 in Rain Light Rain
9:29 PM 35.6 °F 30.7 °F 35.6 °F 100% 29.96 in 0.5 mi NNE 5.8 mph - 0.01 in Fog , Rain Light Rain
9:54 PM 36.0 °F 30.3 °F 36.0 °F 100% 29.99 in 0.8 mi NNE 6.9 mph - 0.03 in Rain Light Rain
10:11 PM 35.6 °F 30.7 °F 35.6 °F 100% 29.95 in 2.0 mi NE 5.8 mph - 0.01 in Rain Light Rain
10:19 PM 35.6 °F 29.9 °F 35.6 °F 100% 29.95 in 4.0 mi NE 6.9 mph - 0.02 in Rain Rain
10:39 PM 35.6 °F 30.7 °F 35.6 °F 100% 29.94 in 1.8 mi NNE 5.8 mph - 0.05 in Rain Rain
10:54 PM 36.0 °F 31.1 °F 36.0 °F 100% 29.98 in 2.0 mi NE 5.8 mph - 0.07 in Rain Rain
11:54 PM 36.0 °F 30.3 °F 36.0 °F 100% 29.96 in 1.8 mi NNE 6.9 mph - 0.07 in Rain Light Rain